Location: Catstown
(52.4386°N, 7.2633°W)
Time: 03:35:08
(UTC+00:00)

Cosmos 2180 Rocket - Pass Details

Date: 18 September 2020
Orbit: 954 x 1004 km, 82.9° (Epoch: 19 October)

Event Time Altitude Azimuth Distance (km) Brightness Sun altitude
Exits shadow 21:50:40 73° 127° (SE) 1,032 4.3 -27.4°
Maximum altitude 21:51:02 75° 97° (E) 1,023 4.4 -27.4°
Drops below altitude 10° 21:57:22 10° 13° (NNE) 2,770 7.3 -28.1°
Sets 21:59:55 0° 12° (NNE) 3,729 8.0 -28.4°
